Home   Weather   Astana   Past weeks

Flag for Kazakhstan Past Weather in Astana, Kazakhstan — Yesterday and Last 2 Weeks

Now
-2 °F

Ice fog.


Feels Like: -14 °F
Forecast: 1 / 12 °F
Wind: 6 mph from East

Location: Astana

Current Time: Jan 19, 2017 at 12:28:22 am

Latest Report: Jan 18, 2017 at 11:30 pm


Visibility: 3 mi

Pressure: 30.45 "Hg

Humidity: 77%

Dew Point: -8 °F

Location of AstanaLocation

Past Weather in Astana — Graph

°F

Astana Temperature Yesterday

Maximum temperature yesterday: 9 °F (at 3:00 pm)
Minimum temperature yesterday: -9 °F (at 1:30 am)
Average temperature yesterday: -3 °F

High & Low Weather Summary for the Past Weeks

 TemperatureHumidityPressure
High30 °F (Jan 5, 12:00 pm)100% (Jan 4, 12:00 am)30.66 "Hg (Jan 4, 12:00 am)
Low-15 °F (Jan 16, 9:00 am)69% (Jan 16, 9:30 am)29.77 "Hg (Jan 3, 11:00 pm)
Average8 °F83%30.35 "Hg
* Reported Jan 3 11:00 pm — Jan 18 11:00 pm, Astana, Weather by CustomWeather, © 2017

Note: Actual official high and low records may vary slightly from our data, if they occured in-between our weather recording intervals... More about our weather records

Advertising

Astana Weather History for the Previous 24 Hours

Scroll right to see more
 ConditionsComfort  
Time TempWeatherWind HumidityBarometerVisibility
11:00 pm
Wed, Jan 18
-2 °FIce fog.8 mph84%30.45 "Hg3 mi
10:30 pm-2 °FIce fog.6 mph77%30.48 "Hg3 mi
10:00 pm-6 °FIce fog.8 mph77%30.48 "Hg3 mi
9:30 pm-2 °FClear.6 mph77%30.48 "Hg4 mi
9:00 pm-4 °FClear.6 mph77%30.48 "Hg10 mi
8:30 pm-2 °FIce fog.10 mph77%30.48 "Hg3 mi
8:00 pm-2 °FIce fog.8 mph84%30.48 "Hg3 mi
7:30 pm-2 °FIce fog.10 mph77%30.48 "Hg3 mi
7:00 pm0 °FPassing clouds.8 mph78%30.51 "Hg4 mi
6:30 pm0 °FIce fog.10 mph84%30.51 "Hg3 mi
6:00 pm0 °FIce fog.8 mph78%30.51 "Hg3 mi
5:30 pm3 °FIce fog.8 mph78%30.51 "Hg2 mi
5:00 pm5 °FClear.8 mph78%30.51 "Hg4 mi
4:30 pm7 °FClear.6 mph85%30.51 "Hg4 mi
4:00 pm7 °FClear.3 mph85%30.51 "Hg5 mi
3:30 pm9 °FClear.6 mph85%30.51 "Hg6 mi
3:00 pm9 °FPassing clouds.3 mph78%30.51 "Hg6 mi
2:30 pm7 °FPassing clouds.3 mph85%30.51 "Hg5 mi
2:00 pm5 °FPassing clouds.3 mph85%30.54 "Hg4 mi
1:30 pm5 °FPassing clouds.3 mph85%30.54 "Hg4 mi
1:00 pm1 °FPassing clouds.3 mph85%30.54 "HgN/A
12:30 pm1 °FIce fog.1 mph78%30.57 "Hg2 mi
12:00 pm0 °FIce fog.1 mph84%30.57 "Hg2 mi
11:30 am-2 °FIce fog.1 mph77%30.57 "Hg0 mi
11:00 am-6 °FIce fog.1 mph84%30.57 "Hg0 mi
10:30 am-6 °FIce fog.3 mph77%30.57 "Hg0 mi
10:00 am-8 °FPassing clouds.1 mph77%30.57 "Hg0 mi
9:30 am-8 °FIce fog.3 mph77%30.57 "Hg3 mi
9:00 am-8 °FIce fog.3 mph77%30.57 "Hg2 mi
8:30 am-8 °FIce fog.3 mph77%30.57 "Hg1 mi
8:00 am-8 °FPassing clouds.3 mph77%30.57 "Hg0 mi
7:30 am-8 °FIce fog.3 mph77%30.57 "Hg0 mi
7:00 am-8 °FIce fog.3 mph77%30.57 "Hg0 mi
6:30 am-8 °FIce fog.3 mph77%30.57 "Hg0 mi
6:00 am-8 °FIce fog.3 mph77%30.57 "Hg0 mi
5:30 am-8 °FIce fog.3 mph77%30.57 "Hg0 mi
5:00 am-8 °FIce fog.6 mph77%30.57 "Hg1 mi
4:30 am-8 °FIce fog.6 mph77%30.60 "Hg0 mi
4:00 am-8 °FIce fog.3 mph77%30.60 "Hg1 mi
3:30 am-6 °FIce fog.6 mph77%30.60 "Hg1 mi
3:00 am-9 °FIce fog.6 mph77%30.60 "Hg1 mi
2:30 am-8 °FIce fog.3 mph77%30.60 "Hg1 mi
2:00 am-9 °FIce fog.1 mph77%30.60 "Hg1 mi
1:30 am-9 °FIce fog.3 mph77%30.60 "Hg1 mi
1:00 am-8 °FIce fog.6 mph77%30.60 "Hg1 mi
12:30 am-6 °FIce fog.3 mph77%30.60 "Hg1 mi
12:00 am-8 °FIce fog.6 mph77%30.63 "Hg2 mi
Weather by CustomWeather, © 2017

See weather overviewHow to use our weather pages